Wind_Speed
11 12 12 11 11 10 11 11 11 10 10 9 9 9 9 9 8 7 6 6 6 6 6 6 6 5 5 6 6 7 7 7 8 8 8 9 9 9 10 10 9 9 9
11 11 12 12 12 11 12 11 11 11 10 10 10 9 9 9 8 8 7 7 7 7 7 6 7 6 6 7 7 7 7 8 8 9 9 9 10 10 10 11 11 11 11
11 11 11 12 12 12 12 12 12 12 12 11 11 10 9 9 9 9 9 8 8 8 8 7 7 7 7 7 8 7 8 8 9 9 10 10 10 10 10 11 12 12 11
12 12 12 12 12 13 13 13 13 13 13 12 10 10 10 10 9 9 10 9 9 9 9 9 9 8 8 8 8 8 8 9 9 10 11 11 11 11 11 12 12 12 12
14 14 13 13 13 13 13 13 13 14 13 12 11 11 11 11 11 10 10 10 10 10 10 10 10 10 10 10 9 9 9 9 10 10 11 11 12 12 11 12 13 13 13
14 14 14 14 13 13 13 13 13 13 13 12 11 11 12 12 12 12 12 12 12 11 11 11 11 11 11 11 10 10 10 11 11 11 11 11 13 13 13 13 14 15 15
15 15 15 14 13 13 13 13 13 13 13 13 12 12 13 13 13 13 14 14 13 12 13 13 13 12 12 12 11 11 12 12 12 12 13 13 13 13 13 13 14 15 15
15 15 15 14 14 14 14 14 13 13 13 13 13 13 14 14 15 15 15 15 13 13 14 14 14 13 13 13 13 13 13 13 13 13 14 15 14 14 14 14 15 15 16
15 16 16 16 15 14 14 14 13 14 14 14 15 15 16 16 16 17 16 15 15 15 15 15 14 14 14 14 14 14 14 14 14 14 15 15 16 16 17 17 17 17 17
15 16 16 16 16 15 15 14 14 14 15 16 16 16 17 17 17 17 17 17 17 16 16 15 16 15 15 15 16 16 16 15 15 16 16 17 17 18 18 18 19 20 19
16 16 16 16 16 16 15 15 15 15 15 16 16 17 17 18 17 17 17 17 18 18 17 17 17 16 16 16 16 17 17 17 17 18 18 18 19 19 20 20 21 21 21
16 16 17 17 17 17 17 16 16 16 16 16 17 18 18 18 18 18 18 18 18 18 18 18 17 17 17 18 18 18 19 19 19 19 19 19 20 20 21 21 21 22 22
17 17 17 18 17 17 17 17 16 17 17 17 18 19 19 19 19 19 19 19 19 19 19 18 18 18 19 19 19 20 20 21 21 21 21 22 22 22 23 23 23 23 23
19 18 18 18 18 18 18 18 18 18 19 19 20 21 21 21 20 20 20 20 20 20 21 21 21 21 21 21 22 22 22 23 23 23 23 24 24 24 24 25 25 25 25
20 20 20 20 19 19 19 20 20 20 21 21 21 22 21 21 22 22 21 22 22 22 23 23 23 23 23 23 24 24 24 24 24 25 26 26 26 26 26 26 27 27 27
21 21 20 20 21 21 21 21 22 22 22 22 23 23 22 22 22 23 23 23 24 23 24 24 24 24 24 25 25 25 26 26 25 26 26 27 27 27 28 28 28 28 28
23 23 22 22 22 22 22 22 23 23 24 24 25 25 25 25 25 25 25 26 26 25 25 25 25 25 26 26 26 26 27 27 27 27 27 27 27 28 29 29 29 29 29
24 24 23 23 23 24 24 24 25 25 25 25 26 26 26 26 26 26 26 26 26 27 27 27 27 27 27 27 28 27 27 27 27 28 28 28 29 29 29 30 29 29 29
25 25 25 25 25 25 26 26 26 25 25 25 26 26 26 26 27 27 27 27 27 28 28 28 27 27 27 28 28 27 27 27 28 28 29 29 30 30 30 31 31 30 30
26 26 26 26 27 26 26 27 26 26 26 26 26 26 26 26 26 27 27 28 28 28 28 28 28 28 28 27 27 26 26 27 27 28 29 29 29 29 30 31 31 31 31
26 27 27 27 27 27 27 27 26 26 26 26 26 26 26 26 26 26 26 27 28 28 29 29 28 28 28 27 27 28 28 27 28 28 28 28 29 30 30 31 32 32 31
27 28 28 28 28 28 27 28 27 27 27 27 27 26 26 26 25 26 27 28 28 29 29 28 28 28 28 27 28 28 28 28 28 28 29 29 30 31 31 31 31 31 31
27 28 28 28 28 28 28 28 27 27 27 28 27 26 26 26 26 27 28 28 28 28 28 28 28 27 27 28 28 28 28 29 29 29 30 30 30 30 31 31 31 31 31
27 27 28 28 27 28 28 28 28 27 27 27 26 26 27 27 27 28 29 29 29 29 28 28 28 28 28 28 28 29 29 29 29 30 30 30 31 31 31 31 31 30 30
27 28 28 27 28 28 28 28 29 28 27 27 27 28 28 29 29 29 30 30 28 28 28 28 28 28 28 28 29 29 29 29 29 29 29 29 30 31 31 31 31 30 29
28 28 28 28 28 28 28 29 29 29 29 29 29 29 30 30 30 30 30 30 29 28 28 28 28 28 29 29 29 29 29 29 29 29 29 30 30 31 31 31 30 30 30
Wind_Direction
359 359 358 359 359 358 357 356 356 358 357 355 355 357 357 354 349 343 341 333 327 323 326 325 317 304 293 287 282 277 277 273 269 268 265 264 263 262 262 265 271 269 270
353 354 354 350 352 352 349 349 350 349 348 345 343 349 349 346 346 341 332 325 320 321 321 320 314 307 298 287 282 278 273 275 274 269 266 266 265 261 264 267 267 267 267
347 348 346 347 345 346 345 345 345 345 343 340 339 341 343 342 340 337 334 324 319 319 319 314 304 300 301 295 287 282 277 275 276 277 271 266 271 267 267 266 264 264 268
338 339 336 339 342 343 343 341 342 342 339 338 337 336 338 338 335 332 332 326 318 318 316 314 309 309 306 302 296 289 285 283 280 278 276 274 274 270 270 268 266 268 272
330 331 335 334 334 336 339 339 338 338 337 336 333 330 332 332 333 328 325 320 313 313 311 312 311 309 308 304 299 295 291 287 283 282 279 277 274 272 272 271 272 273 275
323 321 325 327 330 331 332 334 335 335 334 332 331 330 327 326 329 328 324 322 314 309 308 307 306 303 302 300 298 295 294 287 286 286 285 280 278 276 274 274 275 274 275
319 318 321 324 325 324 326 329 330 331 330 329 327 325 323 321 320 321 320 320 314 309 309 308 306 302 299 297 295 291 289 288 287 287 286 284 282 279 280 281 279 277 278
316 317 320 322 321 318 320 322 324 325 324 324 323 320 319 318 316 316 315 314 313 310 309 309 306 302 298 295 293 290 290 289 286 286 286 287 286 283 283 283 279 277 278
310 313 315 316 316 315 315 317 317 318 318 316 316 314 312 312 313 313 312 311 311 309 307 306 304 301 297 293 290 290 291 291 290 287 285 285 285 282 282 281 281 282 281
306 311 313 312 313 313 312 312 312 311 312 312 311 310 311 310 310 310 309 309 308 307 307 303 302 298 296 294 290 287 287 287 287 287 286 284 281 282 281 281 282 282 283
305 307 310 311 311 311 310 308 308 308 308 309 309 309 309 311 310 308 308 309 307 304 302 303 300 295 293 294 293 289 288 286 286 286 286 283 281 282 282 283 283 283 282
305 307 309 312 312 312 310 308 306 305 304 306 308 307 306 305 306 306 305 306 308 306 300 298 297 294 292 292 291 290 289 288 289 288 287 287 285 283 282 283 284 283 281
304 305 306 309 310 310 309 306 304 305 304 303 305 306 304 302 302 302 303 303 305 306 301 297 295 296 295 295 290 287 286 287 288 288 287 288 288 285 283 283 284 284 282
304 304 305 307 308 307 305 303 303 302 302 301 302 302 302 301 301 301 301 302 303 304 302 298 294 292 293 293 292 289 285 285 285 286 287 287 288 287 284 284 283 283 282
303 304 304 305 303 302 302 302 301 302 301 300 301 303 302 301 300 300 300 300 301 302 302 300 296 294 293 291 290 290 289 287 287 286 286 286 287 287 286 285 283 282 282
300 301 301 301 301 300 300 301 300 300 300 300 301 301 301 301 301 300 300 300 300 300 300 299 297 294 293 292 290 289 288 288 288 287 287 285 286 288 287 285 283 282 282
297 299 300 299 298 299 300 300 300 300 301 301 300 300 299 299 299 299 299 299 300 300 298 298 297 296 294 292 292 290 287 286 286 287 288 287 287 287 289 285 283 283 283
296 297 296 296 296 297 297 298 298 299 300 302 301 298 297 296 297 298 298 298 298 299 299 298 297 296 296 296 295 292 289 286 285 284 285 287 287 287 288 289 286 285 285
294 294 294 294 295 295 295 296 296 296 297 298 299 298 298 297 296 296 297 297 297 299 298 298 298 297 297 298 296 292 290 288 287 286 285 286 286 288 289 289 289 287 287
292 294 295 295 295 294 293 294 295 295 296 296 297 297 297 297 297 296 296 296 296 298 298 297 297 298 300 299 295 293 292 291 290 289 289 288 287 288 289 288 287 288 288
291 292 295 296 295 294 294 294 294 294 295 296 297 297 296 295 295 296 297 298 299 299 299 298 297 297 300 299 298 295 293 293 291 289 289 290 289 289 289 287 287 287 287
289 291 292 294 295 294 292 293 294 294 295 295 295 296 296 295 295 295 296 297 298 297 298 298 297 297 298 297 298 297 295 294 293 291 290 290 290 289 289 288 287 286 286
288 290 292 292 293 293 292 292 294 295 295 294 293 294 294 294 295 296 296 297 297 297 296 296 296 296 297 298 298 297 297 296 293 292 291 291 291 290 289 288 286 286 286
289 290 293 293 293 292 291 292 293 294 295 295 296 296 296 295 295 295 296 296 297 297 296 295 296 298 299 299 297 296 295 296 295 294 293 292 292 291 290 290 289 288 287
289 291 293 293 293 292 292 292 293 294 295 297 297 297 297 297 296 296 296 297 299 299 297 295 296 296 297 297 298 298 295 296 296 296 296 295 293 292 291 291 290 288 287
289 291 292 293 294 294 294 293 292 293 294 295 296 297 296 296 296 297 298 297 296 296 296 296 296 295 295 295 296 298 298 298 297 296 296 295 294 293 291 290 290 289 288
Height
5904 5903 5901 5899 5898 5897 5895 5893 5892 5890 5889 5887 5886 5885 5884 5883 5882 5881 5880 5880 5879 5879 5878 5878 5878 5878 5877 5877 5877 5877 5878 5878 5878 5878 5878 5879 5879 5880 5880 5881 5882 5882 5882
5904 5903 5901 5900 5898 5897 5895 5894 5892 5890 5888 5887 5886 5884 5883 5882 5882 5881 5880 5879 5879 5878 5878 5877 5877 5876 5876 5876 5876 5876 5876 5876 5876 5876 5876 5877 5877 5877 5878 5879 5880 5880 5880
5904 5903 5901 5900 5898 5897 5895 5894 5892 5890 5888 5886 5885 5884 5883 5882 5882 5881 5880 5879 5878 5878 5877 5877 5876 5875 5875 5874 5874 5874 5875 5874 5874 5874 5875 5875 5875 5875 5876 5876 5876 5877 5877
5904 5902 5901 5899 5898 5896 5895 5893 5891 5889 5888 5886 5885 5884 5883 5882 5881 5880 5879 5878 5877 5877 5876 5875 5875 5874 5874 5873 5873 5872 5872 5872 5872 5872 5872 5873 5873 5873 5873 5873 5873 5874 5874
5903 5901 5899 5898 5897 5896 5894 5892 5891 5889 5887 5885 5884 5883 5882 5881 5880 5879 5878 5877 5876 5876 5875 5874 5873 5873 5872 5871 5871 5870 5870 5870 5870 5870 5870 5870 5870 5870 5870 5871 5871 5871 5871
5902 5900 5898 5897 5896 5894 5893 5891 5890 5888 5886 5885 5883 5882 5881 5880 5879 5878 5877 5876 5875 5874 5874 5873 5872 5871 5870 5870 5869 5868 5868 5868 5867 5867 5867 5867 5867 5867 5867 5867 5867 5868 5868
5900 5899 5897 5896 5894 5893 5891 5890 5888 5887 5885 5884 5882 5881 5880 5879 5878 5877 5875 5875 5873 5872 5872 5871 5870 5869 5868 5867 5867 5866 5866 5865 5865 5864 5864 5864 5864 5864 5864 5864 5864 5864 5864
5899 5897 5895 5894 5892 5891 5889 5888 5887 5885 5884 5883 5881 5880 5879 5877 5876 5875 5874 5872 5871 5870 5869 5868 5867 5866 5866 5865 5864 5864 5863 5863 5862 5861 5861 5860 5860 5860 5860 5860 5860 5860 5860
5896 5895 5894 5892 5890 5889 5887 5886 5885 5884 5882 5881 5880 5878 5877 5875 5874 5873 5871 5870 5869 5868 5867 5866 5864 5863 5863 5862 5861 5861 5860 5860 5859 5858 5857 5856 5856 5856 5856 5855 5855 5855 5855
5894 5893 5891 5890 5888 5886 5885 5884 5882 5881 5880 5879 5878 5876 5874 5873 5872 5870 5869 5867 5866 5864 5863 5862 5861 5860 5859 5858 5858 5857 5857 5856 5855 5855 5854 5853 5852 5851 5851 5851 5850 5849 5849
5891 5890 5889 5887 5886 5884 5882 5881 5880 5879 5877 5876 5875 5873 5872 5870 5869 5867 5866 5864 5862 5861 5860 5859 5857 5856 5855 5855 5854 5853 5853 5852 5851 5850 5849 5848 5848 5847 5846 5845 5845 5844 5843
5888 5887 5886 5884 5883 5881 5879 5878 5877 5876 5874 5873 5871 5870 5869 5867 5866 5864 5862 5861 5859 5857 5856 5855 5853 5852 5852 5851 5850 5849 5848 5847 5847 5846 5845 5844 5843 5842 5841 5840 5839 5838 5838
5886 5884 5883 5882 5880 5878 5877 5875 5874 5872 5871 5869 5868 5867 5865 5864 5862 5860 5858 5857 5855 5853 5852 5850 5849 5848 5847 5846 5845 5844 5843 5843 5842 5841 5840 5839 5837 5836 5835 5834 5833 5832 5832
5884 5882 5880 5879 5877 5876 5874 5872 5871 5869 5868 5866 5865 5863 5861 5859 5857 5856 5854 5852 5851 5849 5847 5846 5844 5843 5842 5841 5840 5839 5838 5837 5836 5835 5834 5833 5832 5830 5829 5828 5827 5826 5825
5880 5878 5877 5875 5874 5872 5871 5869 5867 5866 5864 5862 5861 5859 5857 5855 5853 5851 5849 5848 5846 5844 5842 5840 5839 5837 5836 5835 5833 5832 5831 5830 5829 5828 5827 5826 5825 5824 5822 5821 5820 5819 5818
5876 5874 5873 5871 5870 5868 5866 5865 5863 5862 5860 5858 5856 5854 5852 5850 5848 5846 5844 5842 5840 5838 5837 5835 5833 5831 5829 5828 5827 5825 5824 5823 5822 5821 5819 5818 5817 5816 5815 5813 5812 5811 5810
5872 5870 5869 5867 5865 5863 5862 5860 5858 5857 5855 5853 5851 5849 5847 5845 5843 5841 5839 5836 5834 5832 5831 5828 5826 5824 5823 5821 5819 5817 5816 5815 5815 5813 5812 5811 5810 5808 5807 5805 5804 5803 5801
5867 5865 5864 5862 5860 5858 5856 5855 5853 5851 5849 5847 5845 5843 5841 5839 5837 5835 5832 5830 5828 5826 5824 5822 5819 5817 5816 5814 5812 5810 5808 5807 5806 5805 5804 5803 5802 5800 5799 5797 5795 5794 5793
5861 5860 5858 5856 5855 5853 5851 5849 5847 5845 5843 5841 5839 5837 5835 5833 5830 5828 5826 5824 5821 5819 5817 5815 5813 5811 5808 5806 5804 5802 5800 5799 5798 5797 5796 5795 5793 5792 5790 5789 5787 5786 5784
5856 5854 5852 5850 5848 5846 5845 5843 5841 5839 5837 5835 5833 5830 5828 5826 5824 5822 5819 5817 5815 5812 5810 5808 5806 5803 5801 5799 5796 5794 5793 5792 5790 5789 5788 5786 5785 5783 5781 5780 5778 5777 5775
5849 5847 5846 5844 5842 5840 5838 5836 5834 5833 5831 5828 5826 5824 5821 5819 5817 5814 5812 5810 5808 5805 5803 5801 5799 5796 5794 5791 5789 5787 5785 5784 5782 5781 5780 5778 5776 5774 5772 5770 5769 5767 5765
5843 5841 5839 5837 5835 5833 5831 5829 5827 5826 5823 5821 5819 5817 5814 5812 5809 5807 5805 5803 5800 5798 5795 5793 5791 5789 5787 5784 5782 5780 5778 5776 5774 5773 5771 5769 5767 5765 5763 5761 5759 5757 5756
5836 5834 5832 5830 5828 5826 5824 5822 5820 5818 5816 5814 5812 5809 5807 5805 5803 5801 5798 5796 5793 5790 5788 5785 5783 5781 5779 5777 5774 5772 5770 5768 5766 5764 5762 5760 5758 5756 5754 5752 5750 5748 5747
5829 5827 5825 5823 5821 5819 5817 5815 5813 5811 5809 5807 5804 5802 5800 5798 5796 5793 5791 5788 5786 5783 5780 5778 5776 5774 5771 5769 5767 5764 5762 5760 5758 5755 5753 5751 5749 5747 5745 5743 5741 5739 5738
5822 5820 5818 5816 5814 5812 5810 5808 5806 5804 5802 5800 5797 5795 5793 5790 5788 5786 5783 5780 5777 5775 5773 5770 5768 5766 5764 5761 5759 5757 5754 5752 5749 5747 5745 5743 5740 5738 5736 5734 5732 5731 5729
5815 5813 5811 5809 5807 5805 5803 5801 5799 5797 5794 5792 5790 5788 5785 5783 5781 5778 5775 5772 5770 5767 5765 5763 5760 5758 5756 5753 5751 5749 5746 5743 5741 5738 5736 5734 5731 5729 5727 5725 5723 5721 5720